GW3424 Weather Reports


Display with metric or nautical units.
time (UTC)temp
F
wind
direction
speed
MPH
gust
MPH
rain 1hr
in
rain 24hr
in
rain mn
in
humidity
%
barometer
mb
20260902235050 101 178 5.0 12.0 0.00 0.00 0.00 30 972.7
20260902234551 101 171 6.0 13.0 0.00 0.00 0.00 30 972.9
20260902234051 100 122 4.0 15.0 0.00 0.00 0.00 29 972.9
20260902233551 100 109 10.0 15.0 0.00 0.00 0.00 30 972.9
20260902233056 101 113 10.0 15.0 0.00 0.00 0.00 30 973.0
20260902232551 100 98 11.0 15.0 0.00 0.00 0.00 30 973.0
20260902232050 100 107 7.0 15.0 0.00 0.00 0.00 30 973.0
20260902231603 101 134 10.0 18.0 0.00 0.00 0.00 30 973.1
20260902231051 101 140 10.0 15.0 0.00 0.00 0.00 30 973.0
20260902230550 100 122 7.0 17.0 0.00 0.00 0.00 30 973.2
20260902230051 100 131 7.0 18.0 0.00 0.00 0.00 30 973.3
20260902225551 100 92 12.0 18.0 0.00 0.00 0.00 31 973.4
20260902225051 100 156 6.0 26.0 0.00 0.00 0.00 31 973.4
20260902224559 100 360 8.0 26.0 0.00 0.00 0.00 30 973.5
20260902224050 100 157 12.0 18.0 0.00 0.00 0.00 30 973.5
20260902223551 100 360 10.0 18.0 0.00 0.00 0.00 31 973.6
20260902223051 100 360 6.0 19.0 0.00 0.00 0.00 32 973.8
20260902222550 100 140 9.0 13.0 0.00 0.00 0.00 31 973.7
20260902222050 100 138 4.0 10.0 0.00 0.00 0.00 31 973.8
20260902221551 100 360 2.0 15.0 0.00 0.00 0.00 32 973.8
20260902221050 100 360 5.0 17.0 0.00 0.00 0.00 32 973.9
20260902220551 100 360 11.0 17.0 0.00 0.00 0.00 31 974.0
20260902220052 100 360 10.0 16.0 0.00 0.00 0.00 31 974.1
20260902215550 100 360 11.0 18.0 0.00 0.00 0.00 31 974.1
20260902215050 100 360 11.0 18.0 0.00 0.00 0.00 31 974.2
20260902214550 100 360 8.0 15.0 0.00 0.00 0.00 31 974.2
20260902214053 100 360 6.0 17.0 0.00 0.00 0.00 31 974.4
20260902213550 99 360 10.0 17.0 0.00 0.00 0.00 31 974.4
20260902213055 100 121 10.0 16.0 0.00 0.00 0.00 30 974.4
20260902212550 100 121 8.0 16.0 0.00 0.00 0.00 30 974.4
20260902212051 99 360 2.0 15.0 0.00 0.00 0.00 31 974.4
20260902211555 99 360 6.0 16.0 0.00 0.00 0.00 31 974.5
20260902211050 100 360 8.0 16.0 0.00 0.00 0.00 30 974.7
20260902210550 100 111 8.0 13.0 0.00 0.00 0.00 30 974.6
20260902210051 100 360 2.0 17.0 0.00 0.00 0.00 30 974.7
20260902205550 99 119 8.0 18.0 0.00 0.00 0.00 31 974.7
20260902205050 99 115 10.0 18.0 0.00 0.00 0.00 30 974.9
20260902204551 100 360 9.0 17.0 0.00 0.00 0.00 30 974.9
20260902204050 100 360 6.0 17.0 0.00 0.00 0.00 29 975.0
20260902203550 100 360 6.0 15.0 0.00 0.00 0.00 29 975.1
20260902203052 100 360 9.0 15.0 0.00 0.00 0.00 29 975.1
20260902202554 99 360 8.0 14.0 0.00 0.00 0.00 30 975.2
20260902202052 99 360 3.0 17.0 0.00 0.00 0.00 29 975.4
20260902201551 99 360 8.0 17.0 0.00 0.00 0.00 29 975.4
20260902201050 100 360 8.0 12.0 0.00 0.00 0.00 30 975.6
20260902200550 99 360 1.0 13.0 0.00 0.00 0.00 30 975.6
20260902200050 99 360 6.0 15.0 0.00 0.00 0.00 30 975.7
20260902195551 99 360 6.0 15.0 0.00 0.00 0.00 30 975.8
20260902195050 99 360 6.0 12.0 0.00 0.00 0.00 29 975.9
20260902194558 98 360 5.0 11.0 0.00 0.00 0.00 30 976.1
20260902194051 98 360 5.0 16.0 0.00 0.00 0.00 30 976.2
20260902193555 98 360 10.0 16.0 0.00 0.00 0.00 30 976.3
20260902193051 98 360 8.0 14.0 0.00 0.00 0.00 30 976.3
20260902192550 99 96 8.0 12.0 0.00 0.00 0.00 30 976.4
20260902192050 98 360 6.0 11.0 0.00 0.00 0.00 30 976.5
20260902191551 98 137 7.0 12.0 0.00 0.00 0.00 30 976.4
20260902191050 98 144 8.0 12.0 0.00 0.00 0.00 30 976.6
20260902190551 97 146 0.0 16.0 0.00 0.00 0.00 32 976.7
20260902190050 97 154 8.0 16.0 0.00 0.00 0.00 33 976.8
20260902185551 97 152 8.0 13.0 0.00 0.00 0.00 32 976.9
20260902185051 97 360 4.0 14.0 0.00 0.00 0.00 32 976.9
20260902184558 97 360 4.0 14.0 0.00 0.00 0.00 32 977.0
20260902184050 97 50 6.0 13.0 0.00 0.00 0.00 33 977.0
20260902183550 96 360 4.0 11.0 0.00 0.00 0.00 34 977.1
20260902183051 96 360 8.0 14.0 0.00 0.00 0.00 34 977.1
20260902182550 96 360 8.0 16.0 0.00 0.00 0.00 34 977.2
20260902182050 95 360 7.0 19.0 0.00 0.00 0.00 34 977.4
20260902181550 95 360 9.0 19.0 0.00 0.00 0.00 35 977.3
20260902181050 95 360 9.0 15.0 0.00 0.00 0.00 35 977.2
20260902180551 95 360 9.0 16.0 0.00 0.00 0.00 35 977.3
20260902180117 95 360 11.0 16.0 0.00 0.00 0.00 35 977.5
20260902175551 95 360 9.0 16.0 0.00 0.00 0.00 34 977.5
20260902175052 95 360 8.0 12.0 0.00 0.00 0.00 35 977.4
20260902174550 94 360 7.0 12.0 0.00 0.00 0.00 36 977.5
20260902174055 94 360 6.0 14.0 0.00 0.00 0.00 36 977.6
20260902173552 94 360 7.0 15.0 0.00 0.00 0.00 37 977.7
20260902173050 94 360 8.0 15.0 0.00 0.00 0.00 37 977.5
20260902172552 94 360 3.0 12.0 0.00 0.00 0.00 38 977.6
20260902172051 94 360 6.0 13.0 0.00 0.00 0.00 38 977.8
20260902171550 94 360 7.0 13.0 0.00 0.00 0.00 38 977.8
20260902171052 93 21 3.0 13.0 0.00 0.00 0.00 38 977.6
20260902170550 93 360 3.0 11.0 0.00 0.00 0.00 38 977.7
20260902170050 93 13 6.0 11.0 0.00 0.00 0.00 38 977.6
20260902165550 93 12 5.0 12.0 0.00 0.00 0.00 38 977.8
20260902165051 94 11 7.0 12.0 0.00 0.00 0.00 39 977.8
20260902164552 94 11 1.0 6.0 0.00 0.00 0.00 38 977.8
20260902164050 94 360 0.0 5.0 0.00 0.00 0.00 38 977.9
20260902163550 93 360 2.0 4.0 0.00 0.00 0.00 39 977.8
20260902163058 93 360 1.0 10.0 0.00 0.00 0.00 41 977.8
20260902162550 94 28 2.0 10.0 0.00 0.00 0.00 41 977.7
20260902162050 94 311 4.0 9.0 0.00 0.00 0.00 40 977.7
20260902161554 94 10 3.0 7.0 0.00 0.00 0.00 39 977.5
20260902161051 94 117 3.0 6.0 0.00 0.00 0.00 39 977.6
20260902160550 94 115 2.0 4.0 0.00 0.00 0.00 42 977.6
20260902160056 93 10 1.0 4.0 0.00 0.00 0.00 43 977.7
20260902155551 93 268 1.0 4.0 0.00 0.00 0.00 44 977.6
20260902155051 92 21 0.0 8.0 0.00 0.00 0.00 44 977.6
20260902154554 92 267 5.0 8.0 0.00 0.00 0.00 45 977.6
20260902154050 92 298 2.0 5.0 0.00 0.00 0.00 45 977.5
20260902153550 91 298 2.0 5.0 0.00 0.00 0.00 45 977.7
20260902153050 91 299 2.0 4.0 0.00 0.00 0.00 46 977.6
20260902152550 90 298 0.0 3.0 0.00 0.00 0.00 47 977.7
20260902152050 90 360 0.0 3.0 0.00 0.00 0.00 49 977.6
20260902151550 89 360 1.0 4.0 0.00 0.00 0.00 49 977.5
20260902151050 89 360 2.0 4.0 0.00 0.00 0.00 50 977.4
20260902150550 88 360 2.0 4.0 0.00 0.00 0.00 51 977.5
20260902150050 88 360 1.0 4.0 0.00 0.00 0.00 52 977.4
20260902145551 88 360 3.0 4.0 0.00 0.00 0.00 52 977.4
20260902145050 88 360 3.0 5.0 0.00 0.00 0.00 52 977.4
20260902144551 88 360 3.0 5.0 0.00 0.00 0.00 51 977.4
20260902144050 88 360 0.0 5.0 0.00 0.00 0.00 51 977.3
20260902143550 88 360 2.0 5.0 0.00 0.00 0.00 50 977.3
20260902143050 88 360 2.0 5.0 0.00 0.00 0.00 50 977.2
20260902142550 89 360 2.0 4.0 0.00 0.00 0.00 49 977.3
20260902142051 89 360 0.0 4.0 0.00 0.00 0.00 50 977.1
20260902141550 89 360 1.0 4.0 0.00 0.00 0.00 49 977.1
20260902141050 89 360 0.0 4.0 0.00 0.00 0.00 49 977.0
20260902140550 88 360 0.0 5.0 0.00 0.00 0.00 48 976.9
20260902140053 88 360 1.0 4.0 0.00 0.00 0.00 48 977.0
20260902135550 88 9 1.0 3.0 0.00 0.00 0.00 49 976.9
20260902135050 88 9 0.0 4.0 0.00 0.00 0.00 49 976.9
20260902134551 87 9 1.0 5.0 0.00 0.00 0.00 49 976.8
20260902134051 87 9 3.0 5.0 0.00 0.00 0.00 50 976.6
20260902133550 87 9 2.0 4.0 0.00 0.00 0.00 50 976.6
20260902133051 87 9 2.0 4.0 0.00 0.00 0.00 50 976.8
20260902132551 87 9 2.0 5.0 0.00 0.00 0.00 50 976.6
20260902132050 87 9 2.0 5.0 0.00 0.00 0.00 49 976.6
20260902131550 87 9 0.0 6.0 0.00 0.00 0.00 49 976.3
20260902131050 88 9 2.0 6.0 0.00 0.00 0.00 50 976.5
20260902130555 88 10 3.0 8.0 0.00 0.00 0.00 50 976.4
20260902130057 88 9 4.0 9.0 0.00 0.00 0.00 49 976.3
20260902125552 88 11 5.0 9.0 0.00 0.00 0.00 48 976.3
20260902125050 88 10 3.0 8.0 0.00 0.00 0.00 47 976.1
20260902124550 88 10 3.0 8.0 0.00 0.00 0.00 47 976.2
20260902124050 88 10 4.0 6.0 0.00 0.00 0.00 46 976.2
20260902123550 89 11 3.0 9.0 0.00 0.00 0.00 46 976.2
20260902123057 89 11 4.0 10.0 0.00 0.00 0.00 46 976.2
20260902122554 89 11 5.0 10.0 0.00 0.00 0.00 45 976.0
20260902122051 89 11 7.0 10.0 0.00 0.00 0.00 45 976.0
20260902121559 89 11 8.0 10.0 0.00 0.00 0.00 45 975.9
20260902121050 89 11 6.0 9.0 0.00 0.00 0.00 45 976.0
20260902120550 88 11 7.0 9.0 0.00 0.00 0.00 45 975.8
20260902120051 88 11 4.0 7.0 0.00 0.00 0.00 46 975.8
20260902115550 88 11 3.0 6.0 0.00 0.00 0.00 46 975.8
20260902115051 88 11 3.0 5.0 0.00 0.00 0.00 46 975.8
20260902114551 88 11 4.0 5.0 0.00 0.00 0.00 46 975.7
20260902114054 88 11 3.0 4.0 0.00 0.00 0.00 46 975.7
20260902113553 88 11 0.0 3.0 0.00 0.00 0.00 45 975.7
20260902113055 89 11 0.0 2.0 0.00 0.00 0.00 45 975.7
20260902112550 89 11 0.0 1.0 0.00 0.00 0.00 45 975.6
20260902112050 89 11 0.0 3.0 0.00 0.00 0.00 45 975.6
20260902111553 89 11 1.0 3.0 0.00 0.00 0.00 44 975.6
20260902111053 89 11 1.0 3.0 0.00 0.00 0.00 44 975.6
20260902110554 89 11 0.0 5.0 0.00 0.00 0.00 44 975.6
20260902110054 89 11 1.0 5.0 0.00 0.00 0.00 44 975.6
20260902105550 90 11 2.0 6.0 0.00 0.00 0.00 44 975.6
20260902105050 90 11 3.0 9.0 0.00 0.00 0.00 44 975.6
20260902104555 90 11 4.0 10.0 0.00 0.00 0.00 43 975.6
20260902104050 90 11 5.0 10.0 0.00 0.00 0.00 43 975.6
20260902103550 90 11 5.0 10.0 0.00 0.00 0.00 43 975.6
20260902103050 90 11 3.0 10.0 0.00 0.00 0.00 43 975.6
20260902102550 90 11 4.0 12.0 0.00 0.00 0.00 43 975.6
20260902102051 90 11 4.0 12.0 0.00 0.00 0.00 43 975.6
20260902101600 90 11 5.0 11.0 0.00 0.00 0.00 43 975.6
20260902101052 90 11 6.0 11.0 0.00 0.00 0.00 42 975.6
20260902100550 90 11 7.0 12.0 0.00 0.00 0.00 42 975.6
20260902100105 91 10 8.0 12.0 0.00 0.00 0.00 42 975.6
20260902095550 91 11 8.0 12.0 0.00 0.00 0.00 42 975.6
20260902095050 91 11 6.0 12.0 0.00 0.00 0.00 42 975.6
20260902094550 91 11 7.0 13.0 0.00 0.00 0.00 42 975.6
20260902094050 91 11 9.0 13.0 0.00 0.00 0.00 42 975.6
20260902093550 91 11 8.0 13.0 0.00 0.00 0.00 42 975.6
20260902093051 91 11 8.0 13.0 0.00 0.00 0.00 42 975.6
20260902092554 91 11 7.0 13.0 0.00 0.00 0.00 42 975.7
20260902092050 91 11 8.0 13.0 0.00 0.00 0.00 42 975.6
20260902091554 92 11 7.0 14.0 0.00 0.00 0.00 41 975.6
20260902091053 92 11 6.0 14.0 0.00 0.00 0.00 41 975.5
20260902090550 92 11 7.0 16.0 0.00 0.00 0.00 40 975.5
20260902090050 92 10 10.0 16.0 0.00 0.00 0.00 40 975.6
20260902085553 92 11 10.0 16.0 0.00 0.00 0.00 41 975.5
20260902085051 92 10 11.0 17.0 0.00 0.00 0.00 40 975.4
20260902084600 92 10 12.0 17.0 0.00 0.00 0.00 40 975.4
20260902084051 92 11 11.0 17.0 0.00 0.00 0.00 41 975.4
20260902083551 92 10 9.0 17.0 0.00 0.00 0.00 41 975.4
20260902083052 92 10 11.0 16.0 0.00 0.00 0.00 41 975.5
20260902082550 92 11 10.0 17.0 0.00 0.00 0.00 42 975.5
20260902082050 92 11 9.0 18.0 0.00 0.00 0.00 42 975.6
20260902081601 93 11 12.0 18.0 0.00 0.00 0.00 41 975.5
20260902081050 93 11 11.0 20.0 0.00 0.00 0.00 41 975.6
20260902080550 93 11 12.0 20.0 0.00 0.00 0.00 41 975.6
20260902080051 93 10 12.0 19.0 0.00 0.00 0.00 41 975.5
20260902075550 93 10 11.0 19.0 0.00 0.00 0.00 41 975.6
20260902075053 93 9 9.0 19.0 0.00 0.00 0.00 41 975.5
20260902074550 93 10 10.0 19.0 0.00 0.00 0.00 40 975.6
20260902074051 93 10 11.0 21.0 0.00 0.00 0.00 40 975.5
20260902073550 93 10 15.0 21.0 0.00 0.00 0.00 40 975.5
20260902073055 93 10 11.0 20.0 0.00 0.00 0.00 40 975.4
20260902072550 93 11 12.0 20.0 0.00 0.00 0.00 40 975.5
20260902072053 93 10 11.0 19.0 0.00 0.00 0.00 41 975.5
20260902071550 94 10 10.0 20.0 0.00 0.00 0.00 41 975.4
20260902071050 94 10 8.0 16.0 0.00 0.00 0.00 41 975.3
20260902070551 94 11 8.0 18.0 0.00 0.00 0.00 41 975.2
20260902070050 94 10 9.0 18.0 0.00 0.00 0.00 41 975.3
20260902065551 94 10 8.0 16.0 0.00 0.00 0.00 41 975.3
20260902065050 94 10 9.0 15.0 0.00 0.00 0.00 41 975.3
20260902064557 94 10 11.0 15.0 0.00 0.00 0.00 41 975.3
20260902064051 94 11 8.0 14.0 0.00 0.00 0.00 41 975.3
20260902063550 94 11 8.0 14.0 0.00 0.00 0.00 41 975.3
20260902063053 94 10 5.0 16.0 0.00 0.00 0.00 41 975.2
20260902062554 94 9 9.0 17.0 0.00 0.00 0.00 41 975.3
20260902062051 94 10 9.0 18.0 0.00 0.00 0.00 41 975.2
20260902061604 94 11 9.0 18.0 0.00 0.00 0.00 40 975.4
20260902061050 95 10 10.0 18.0 0.00 0.00 0.00 40 975.4
20260902060550 95 9 7.0 21.0 0.00 0.00 0.00 39 975.3
20260902060054 95 10 7.0 21.0 0.00 0.00 0.00 39 975.4
20260902055553 95 9 9.0 21.0 0.00 0.00 0.00 39 975.3
20260902055050 95 9 12.0 21.0 0.00 0.00 0.00 39 975.4
20260902054552 95 10 9.0 17.0 0.00 0.00 0.00 38 975.5
20260902054050 94 10 9.0 17.0 0.00 0.00 0.00 39 975.4
20260902053550 93 9 5.0 12.0 0.00 0.00 0.00 40 975.4
20260902053050 94 16 4.0 6.0 0.00 0.00 0.00 41 975.4
20260902052551 94 16 3.0 6.0 0.00 0.00 0.00 39 975.3
20260902052050 95 5 2.0 4.0 0.00 0.00 0.00 39 975.3
20260902051550 95 5 2.0 6.0 0.00 0.00 0.00 38 975.2
20260902051052 95 5 3.0 6.0 0.00 0.00 0.00 38 975.3
20260902050550 95 9 1.0 8.0 0.00 0.00 0.00 38 975.3
20260902050104 95 9 3.0 10.0 0.00 0.00 0.00 38 975.3
20260902045550 95 9 2.0 10.0 0.00 0.00 0.00 38 975.3
20260902045050 95 9 3.0 8.0 0.00 0.00 0.00 39 975.4
20260902044552 95 9 5.0 8.0 0.00 0.00 0.00 39 975.3
20260902044051 94 9 3.0 9.0 0.00 0.00 0.00 40 975.1
20260902043552 94 9 5.0 10.0 0.00 0.00 0.00 40 975.1
20260902043051 94 9 6.0 11.0 0.00 0.00 0.00 40 975.1
20260902042550 93 9 5.0 10.0 0.00 0.00 0.00 41 975.0
20260902042050 93 9 4.0 8.0 0.00 0.00 0.00 41 974.9
20260902041551 93 17 4.0 6.0 0.00 0.00 0.00 41 974.8
20260902041050 94 16 3.0 6.0 0.00 0.00 0.00 40 974.9
20260902040550 95 16 3.0 6.0 0.00 0.00 0.00 40 974.8
20260902040050 95 9 4.0 7.0 0.00 0.00 0.00 38 974.9
20260902035550 95 9 3.0 5.0 0.00 0.00 0.00 38 974.8
20260902035050 95 9 2.0 8.0 0.00 0.00 0.00 38 974.7
20260902034550 95 9 4.0 9.0 0.00 0.00 0.00 38 974.7
20260902034052 95 9 5.0 9.0 0.00 0.00 0.00 38 974.7
20260902033552 95 9 7.0 10.0 0.00 0.00 0.00 38 974.6
20260902033052 96 9 7.0 10.0 0.00 0.00 0.00 38 974.4
20260902032549 96 9 5.0 8.0 0.00 0.00 0.00 38 974.4
20260902032050 95 9 4.0 9.0 0.00 0.00 0.00 39 974.4
20260902031550 96 9 4.0 9.0 0.00 0.00 0.00 39 974.2
20260902031051 96 9 5.0 8.0 0.00 0.00 0.00 39 974.1
20260902030549 96 9 4.0 8.0 0.00 0.00 0.00 39 974.0
20260902030051 96 9 3.0 8.0 0.00 0.00 0.00 39 974.0
20260902025551 96 9 4.0 8.0 0.00 0.00 0.00 39 973.8
20260902025054 96 5 4.0 8.0 0.00 0.00 0.00 39 973.7
20260902024551 96 5 4.0 8.0 0.00 0.00 0.00 39 973.7
20260902024050 96 5 3.0 8.0 0.00 0.00 0.00 39 973.5
20260902023550 96 5 4.0 6.0 0.00 0.00 0.00 39 973.6
20260902023054 96 5 4.0 8.0 0.00 0.00 0.00 39 973.5
20260902022550 96 360 4.0 8.0 0.00 0.00 0.00 39 973.6
20260902022050 96 5 4.0 8.0 0.00 0.00 0.00 39 973.6
20260902021550 96 5 5.0 8.0 0.00 0.00 0.00 39 973.6
20260902021051 97 5 4.0 6.0 0.00 0.00 0.00 38 973.6
20260902020550 97 15 2.0 4.0 0.00 0.00 0.00 38 973.6
20260902020054 97 15 1.0 3.0 0.00 0.00 0.00 38 973.6
20260902015552 97 15 1.0 3.0 0.00 0.00 0.00 37 973.6
20260902015050 97 15 1.0 4.0 0.00 0.00 0.00 37 973.6
20260902014551 97 15 2.0 5.0 0.00 0.00 0.00 37 973.5
20260902014050 97 15 1.0 5.0 0.00 0.00 0.00 37 973.4
20260902013550 97 15 0.0 5.0 0.00 0.00 0.00 37 973.4
20260902013050 97 15 1.0 6.0 0.00 0.00 0.00 37 973.5
20260902012550 98 17 1.0 5.0 0.00 0.00 0.00 37 973.4
20260902012050 98 279 3.0 5.0 0.00 0.00 0.00 37 973.4
20260902011553 98 279 2.0 7.0 0.00 0.00 0.00 37 973.4
20260902011050 98 279 2.0 7.0 0.00 0.00 0.00 37 973.4
20260902010550 98 277 4.0 8.0 0.00 0.00 0.00 37 973.5
20260902005551 98 267 1.0 7.0 0.00 0.00 0.00 36 973.5
20260902005050 98 242 2.0 8.0 0.00 0.00 0.00 36 973.6
20260902004550 98 308 4.0 8.0 0.00 0.00 0.00 36 973.8
20260902004052 98 290 4.0 8.0 0.00 0.00 0.00 36 973.7
20260902003550 99 249 4.0 9.0 0.00 0.00 0.00 36 973.6
20260902003050 99 257 3.0 11.0 0.00 0.00 0.00 36 973.7
20260902002553 99 280 4.0 11.0 0.00 0.00 0.00 36 973.8
20260902002050 99 242 3.0 7.0 0.00 0.00 0.00 36 973.8
20260902001550 98 246 3.0 6.0 0.00 0.00 0.00 36 973.8
20260902001051 98 18 3.0 8.0 0.00 0.00 0.00 37 973.9
20260902000550 98 18 4.0 11.0 0.00 0.00 0.00 37 974.0
20260902000052 98 15 3.0 6.0 0.00 0.00 0.00 37 973.8
20260901235550 99 15 4.0 9.0 0.00 0.00 0.00 36 973.9